FENGYUN 1C DEB, 35171

Orbit data source: Space-Track

FENGYUN 1C DEB, 35171 is space debris in SSO originally from a launch on Mon, 10 May 1999 UTC launched from the Taiyaun Space Center, China (TSC). Fengyun 1C debris stems from the Chinese weather satellite Fengyun-1C, which was intentionally destroyed by a Chinese anti-satellite missile in 2007. This event dramatically increased the amount of space debris, with thousands of trackable fragments posing hazards to satellites and human spaceflight. The Fengyun 1C debris cloud has become a focal point in discussions about space sustainability and the need for international regulations to prevent the creation of new debris.

Loading next visibility...
Identifier
35171, 1999-025DNB
Orbit
SSO
Country
Flag of CNCN / PRC
Related business
Manufacturer
Unknown
Mission
Spacecraft
Bus & Motor
Unknown
Mass
Unknown
Launch date (UTC)
1999-05-10 (27 years ago)
Launch vehicle
Unknown
Launch site
Taiyaun Space Center, China (TSC)
Object type
Payload
Rocket body
Debris
Shape & HBR
Unknown shape, 0.1 m
Radar Cross Section
Small (<0.1 m²)

Expand to show TLE details & history
Last TLE update: 13 hours ago

TLE from 13 hours ago
0 FENGYUN 1C DEB
1 35171U 99025DNB 26150.87540169  .00002798  00000-0  19234-2 0  9993
2 35171  99.0197 303.5530 0136829 214.6431 144.5761 13.95826765909179
Epoch: 2026-05-30T21:00Z
TLE epoch observation values (Epoch: 2026-05-30T21:00:34.706Z)
Latitude
0.00002°
Longitude
100.02323°
Altitude
992.864 km
Speed
7.314 km/s
True Right ascension
20h 14m 12s
True Declination
0° 00' 00"
Sunlit
Object was in full shadow at epoch
Visualization orbit readout
Latitude
Unknown
Longitude
Unknown
Altitude
Unknown
Speed
Unknown
Apparent Right ascension
Unknown
Apparent Declination
Unknown
Sunlit
N/A
Visualization observer readout
Local Sidereal Time
19:48:59
Azimuth
Unknown
Elevation
Unknown
Doppler factor
Unknown
Orbital elements
Apogee altitude
1,005.149 km
Perigee altitude
805.826 km
Semi-major axis
7,283.624 km
Eccentricity
0.01368
Inclination
99.0197°
RAAN
303.553°
Arg. of periapsis
214.6431°
True anomaly
145.47238°
Mean anomaly
144.5761°
Eccentric anomaly
145.02548°
Mean motion
3.49158 °/min
Orbital period
103.11 mins
BSTAR
0.0019234
Loading maneuver chart data...
Computing Atmospheric mass density...
Loading historical data...
Loading historical data...
Loading historical data...
Loading historical data...
Loading historical data...
Loading historical data...
Loading historical data...

Documentation

Showing up to 5 results
|